| time (UTC) | temp F | wind direction | speed knots | gust knots | rain 1hr in | rain 24hr in | rain mn in | humidity % | barometer mb |
| 20260506060107 | 76 | 257 | 0.9 | 1.7 | 0.00 | 0.00 | 0.00 | 92 | 1009.8 |
| 20260506051017 | 76 | 120 | 0.9 | 5.2 | 0.00 | 0.00 | 0.00 | 91 | 1009.8 |
| 20260506050108 | 76 | 185 | 0.9 | 2.6 | 0.00 | 0.00 | 0.00 | 91 | 1009.6 |
| 20260506045058 | 77 | 169 | 0.9 | 3.5 | 0.00 | 0.00 | 0.00 | 90 | 1009.7 |
| 20260506044048 | 77 | 184 | 0.9 | 2.6 | 0.00 | 0.00 | 0.00 | 89 | 1009.8 |
| 20260506043038 | 77 | 125 | 0.9 | 3.5 | 0.00 | 0.00 | 0.00 | 89 | 1009.7 |
| 20260506042028 | 77 | 147 | 0.9 | 2.6 | 0.00 | 0.00 | 0.00 | 88 | 1009.6 |
| 20260506041018 | 77 | 193 | 1.7 | 6.1 | 0.00 | 0.00 | 0.00 | 87 | 1009.4 |
| 20260506040209 | 78 | 230 | 1.7 | 5.2 | 0.00 | 0.00 | 0.00 | 86 | 1009.6 |
| 20260506035059 | 78 | 135 | 0.9 | 1.7 | 0.00 | 0.00 | 0.00 | 86 | 1009.4 |
| 20260506034049 | 78 | 213 | 0.9 | 5.2 | 0.00 | 0.00 | 0.00 | 86 | 1009.4 |
| 20260506033039 | 78 | 151 | 1.7 | 6.1 | 0.00 | 0.00 | 0.00 | 86 | 1009.1 |
| 20260506032049 | 78 | 162 | 0.9 | 3.5 | 0.00 | 0.00 | 0.00 | 86 | 1009.0 |
| 20260506031019 | 78 | 158 | 0.9 | 7.0 | 0.00 | 0.00 | 0.00 | 86 | 1008.8 |
| 20260506030130 | 78 | 197 | 0.9 | 3.5 | 0.00 | 0.00 | 0.00 | 85 | 1008.7 |
| 20260506025100 | 78 | 156 | 1.7 | 5.2 | 0.00 | 0.00 | 0.00 | 85 | 1008.8 |
| 20260506024109 | 78 | 136 | 1.7 | 5.2 | 0.00 | 0.00 | 0.00 | 85 | 1008.6 |
| 20260506023039 | 78 | 176 | 1.7 | 3.5 | 0.00 | 0.00 | 0.00 | 84 | 1008.5 |
| 20260506022029 | 79 | 166 | 1.7 | 6.1 | 0.00 | 0.00 | 0.00 | 84 | 1008.4 |
| 20260506021019 | 79 | 138 | 1.7 | 5.2 | 0.00 | 0.00 | 0.00 | 83 | 1008.3 |
| 20260506020110 | 79 | 144 | 1.7 | 5.2 | 0.00 | 0.00 | 0.00 | 82 | 1008.2 |
| 20260506015100 | 79 | 130 | 1.7 | 3.5 | 0.00 | 0.00 | 0.00 | 82 | 1008.0 |
| 20260506014050 | 79 | 169 | 1.7 | 6.1 | 0.00 | 0.00 | 0.00 | 81 | 1007.8 |
| 20260506013040 | 79 | 116 | 0.9 | 6.1 | 0.00 | 0.00 | 0.00 | 80 | 1007.8 |
| 20260506012050 | 79 | 194 | 0.9 | 3.5 | 0.00 | 0.00 | 0.00 | 79 | 1007.5 |
| 20260506011020 | 80 | 186 | 1.7 | 7.0 | 0.00 | 0.00 | 0.00 | 79 | 1007.3 |
| 20260506010111 | 80 | 172 | 1.7 | 5.2 | 0.00 | 0.00 | 0.00 | 79 | 1007.3 |
| 20260506005101 | 80 | 162 | 1.7 | 7.8 | 0.00 | 0.00 | 0.00 | 78 | 1007.2 |
| 20260506004051 | 80 | 176 | 1.7 | 5.2 | 0.00 | 0.00 | 0.00 | 78 | 1007.2 |
| 20260506003041 | 80 | 104 | 0.9 | 5.2 | 0.00 | 0.00 | 0.00 | 78 | 1007.1 |
| 20260506002051 | 81 | 164 | 1.7 | 6.1 | 0.00 | 0.00 | 0.00 | 77 | 1006.9 |
| 20260506001041 | 81 | 131 | 1.7 | 7.0 | 0.00 | 0.00 | 0.00 | 77 | 1007.1 |
| 20260506000112 | 81 | 145 | 0.9 | 3.5 | 0.00 | 0.00 | 0.00 | 78 | 1007.2 |
| 20260505235102 | 81 | 238 | 0.9 | 7.0 | 0.00 | 0.00 | 0.00 | 77 | 1007.0 |
| 20260505234052 | 81 | 178 | 3.5 | 7.0 | 0.00 | 0.00 | 0.00 | 76 | 1007.0 |
| 20260505233041 | 82 | 179 | 1.7 | 7.8 | 0.00 | 0.00 | 0.00 | 76 | 1007.0 |
| 20260505232032 | 82 | 138 | 0.9 | 7.0 | 0.00 | 0.00 | 0.00 | 76 | 1007.0 |
| 20260505231022 | 82 | 150 | 0.9 | 3.5 | 0.00 | 0.00 | 0.00 | 76 | 1006.9 |
| 20260505230112 | 82 | 165 | 1.7 | 7.8 | 0.00 | 0.00 | 0.00 | 76 | 1007.1 |
| 20260505225103 | 82 | 118 | 0.9 | 7.8 | 0.00 | 0.00 | 0.00 | 75 | 1006.9 |
| 20260505224053 | 82 | 222 | 0.9 | 6.1 | 0.00 | 0.00 | 0.00 | 75 | 1007.0 |
| 20260505223042 | 83 | 87 | 2.6 | 7.8 | 0.00 | 0.00 | 0.00 | 74 | 1007.1 |
| 20260505222032 | 83 | 247 | 1.7 | 5.2 | 0.00 | 0.00 | 0.00 | 73 | 1007.1 |
| 20260505221022 | 83 | 220 | 1.7 | 5.2 | 0.00 | 0.00 | 0.00 | 73 | 1007.1 |
| 20260505220113 | 83 | 127 | 1.7 | 7.0 | 0.00 | 0.00 | 0.00 | 73 | 1007.4 |
| 20260505215103 | 83 | 103 | 0.9 | 6.1 | 0.00 | 0.00 | 0.00 | 73 | 1007.3 |
| 20260505214113 | 84 | 166 | 1.7 | 6.1 | 0.00 | 0.00 | 0.00 | 71 | 1007.6 |
| 20260505213043 | 84 | 190 | 0.9 | 3.5 | 0.00 | 0.00 | 0.00 | 72 | 1007.5 |
| 20260505212033 | 83 | 118 | 2.6 | 7.8 | 0.00 | 0.00 | 0.00 | 73 | 1007.8 |
| 20260505211023 | 83 | 349 | 1.7 | 7.0 | 0.00 | 0.00 | 0.00 | 73 | 1008.0 |
| 20260505210134 | 83 | 137 | 2.6 | 6.1 | 0.00 | 0.00 | 0.00 | 73 | 1008.0 |
| 20260505205104 | 83 | 146 | 1.7 | 7.8 | 0.00 | 0.00 | 0.00 | 73 | 1008.3 |
| 20260505204054 | 83 | 94 | 1.7 | 8.7 | 0.00 | 0.00 | 0.00 | 73 | 1008.4 |
| 20260505203044 | 84 | 123 | 0.9 | 3.5 | 0.00 | 0.00 | 0.00 | 72 | 1008.4 |
| 20260505202054 | 84 | 143 | 1.7 | 6.1 | 0.00 | 0.00 | 0.00 | 72 | 1008.6 |
| 20260505201024 | 85 | 187 | 1.7 | 2.6 | 0.00 | 0.00 | 0.00 | 72 | 1008.7 |
| 20260505200115 | 84 | 315 | 0.9 | 7.8 | 0.00 | 0.00 | 0.00 | 73 | 1008.8 |
| 20260505195105 | 84 | 136 | 1.7 | 7.0 | 0.00 | 0.00 | 0.00 | 73 | 1008.9 |
| 20260505194115 | 83 | 125 | 1.7 | 3.5 | 0.00 | 0.00 | 0.00 | 74 | 1009.1 |
| 20260505193045 | 82 | 200 | 1.7 | 7.0 | 0.00 | 0.00 | 0.00 | 75 | 1009.0 |
| 20260505192035 | 83 | 130 | 1.7 | 7.0 | 0.00 | 0.00 | 0.00 | 74 | 1009.2 |
| 20260505191025 | 83 | 150 | 1.7 | 5.2 | 0.00 | 0.00 | 0.00 | 75 | 1009.3 |
| 20260505190115 | 83 | 174 | 1.7 | 2.6 | 0.00 | 0.00 | 0.00 | 74 | 1009.1 |
| 20260505185106 | 83 | 203 | 0.9 | 6.1 | 0.00 | 0.00 | 0.00 | 75 | 1009.2 |
| 20260505184055 | 82 | 94 | 1.7 | 6.1 | 0.00 | 0.00 | 0.00 | 75 | 1009.4 |
| 20260505183046 | 82 | 171 | 0.9 | 8.7 | 0.00 | 0.00 | 0.00 | 76 | 1009.5 |
| 20260505182035 | 82 | 145 | 1.7 | 5.2 | 0.00 | 0.00 | 0.00 | 77 | 1009.5 |
| 20260505181025 | 82 | 105 | 0.9 | 1.7 | 0.00 | 0.00 | 0.00 | 77 | 1009.6 |
| 20260505180016 | 81 | 229 | 0.9 | 5.2 | 0.00 | 0.00 | 0.00 | 78 | 1009.8 |
| 20260505175107 | 80 | 138 | 0.9 | 3.5 | 0.00 | 0.00 | 0.00 | 80 | 1010.0 |
| 20260505174056 | 80 | 125 | 0.9 | 5.2 | 0.00 | 0.00 | 0.00 | 78 | 1009.9 |
| 20260505173047 | 80 | 116 | 0.9 | 6.1 | 0.00 | 0.00 | 0.00 | 79 | 1009.9 |
| 20260505172116 | 80 | 155 | 1.7 | 5.2 | 0.00 | 0.00 | 0.00 | 78 | 1009.9 |
| 20260505171026 | 80 | 191 | 0.9 | 3.5 | 0.00 | 0.00 | 0.00 | 79 | 1009.9 |
| 20260505170016 | 80 | 122 | 0.9 | 3.5 | 0.00 | 0.00 | 0.00 | 80 | 1010.1 |
| 20260505165127 | 80 | 293 | 0.9 | 6.1 | 0.00 | 0.00 | 0.00 | 81 | 1010.1 |
| 20260505164137 | 80 | 310 | 0.9 | 2.6 | 0.00 | 0.00 | 0.00 | 81 | 1010.0 |
| 20260505163047 | 79 | 109 | 2.6 | 6.1 | 0.00 | 0.00 | 0.00 | 82 | 1009.9 |
| 20260505162037 | 79 | 146 | 0.9 | 2.6 | 0.00 | 0.00 | 0.00 | 82 | 1010.1 |
| 20260505161033 | 79 | 152 | 1.7 | 5.2 | 0.00 | 0.00 | 0.00 | 82 | 1009.9 |
| 20260505153108 | 77 | 107 | 1.7 | 5.2 | 0.00 | 0.00 | 0.00 | 86 | 1009.6 |
| 20260505152038 | 76 | 198 | 0.0 | 1.7 | 0.00 | 0.00 | 0.00 | 91 | 1009.6 |
| 20260505151028 | 75 | 143 | 0.9 | 2.6 | 0.00 | 0.00 | 0.00 | 90 | 1009.7 |
| 20260505124120 | 72 | 161 | 1.7 | 2.6 | 0.00 | 0.00 | 0.00 | 92 | 1009.2 |
| 20260505123050 | 72 | 163 | 0.9 | 1.7 | 0.00 | 0.00 | 0.00 | 93 | 1009.3 |
| 20260505122040 | 71 | 190 | 0.9 | 2.6 | 0.00 | 0.00 | 0.00 | 93 | 1009.2 |
| 20260505121030 | 71 | 239 | 0.9 | 2.6 | 0.00 | 0.00 | 0.00 | 93 | 1009.0 |
| 20260505120040 | 71 | 179 | 0.9 | 1.7 | 0.00 | 0.00 | 0.00 | 93 | 1008.9 |
| 20260505115111 | 71 | 180 | 0.9 | 2.6 | 0.00 | 0.00 | 0.00 | 93 | 1008.7 |
| 20260505114101 | 70 | 170 | 0.9 | 2.6 | 0.00 | 0.00 | 0.00 | 93 | 1008.9 |
| 20260505113051 | 70 | 142 | 0.9 | 2.6 | 0.00 | 0.00 | 0.00 | 93 | 1009.0 |
| 20260505112041 | 71 | 209 | 0.9 | 5.2 | 0.00 | 0.00 | 0.00 | 92 | 1008.9 |
| 20260505111031 | 71 | 102 | 0.9 | 3.5 | 0.00 | 0.00 | 0.00 | 92 | 1008.9 |
| 20260505102043 | 70 | 136 | 0.9 | 3.5 | 0.00 | 0.00 | 0.00 | 92 | 1008.9 |
| 20260505101031 | 70 | 173 | 0.9 | 2.6 | 0.00 | 0.00 | 0.00 | 92 | 1008.8 |
| 20260505100022 | 70 | 217 | 0.9 | 1.7 | 0.00 | 0.00 | 0.00 | 92 | 1009.0 |
| 20260505095112 | 70 | 224 | 0.0 | 0.9 | 0.00 | 0.00 | 0.00 | 91 | 1009.1 |
| 20260505094123 | 70 | 171 | 0.0 | 1.7 | 0.00 | 0.00 | 0.00 | 91 | 1008.9 |
| 20260505093052 | 70 | 196 | 0.9 | 1.7 | 0.00 | 0.00 | 0.00 | 91 | 1009.0 |
| 20260505092042 | 70 | 183 | 0.9 | 2.6 | 0.00 | 0.00 | 0.00 | 91 | 1009.1 |
| 20260505091032 | 70 | 135 | 0.9 | 2.6 | 0.00 | 0.00 | 0.00 | 90 | 1009.3 |
| 20260505090022 | 70 | 163 | 0.9 | 2.6 | 0.00 | 0.00 | 0.00 | 90 | 1009.3 |
| 20260505085113 | 71 | 176 | 0.9 | 3.5 | 0.00 | 0.00 | 0.00 | 90 | 1009.4 |
| 20260505084103 | 70 | 149 | 1.7 | 2.6 | 0.00 | 0.00 | 0.00 | 90 | 1009.4 |
| 20260505083053 | 70 | 169 | 0.9 | 2.6 | 0.00 | 0.00 | 0.00 | 90 | 1009.5 |
| 20260505082043 | 70 | 146 | 0.9 | 1.7 | 0.00 | 0.00 | 0.00 | 90 | 1009.7 |
| 20260505081033 | 70 | 123 | 0.0 | 1.7 | 0.00 | 0.00 | 0.00 | 90 | 1009.6 |
| 20260505080103 | 70 | 176 | 0.9 | 2.6 | 0.00 | 0.00 | 0.00 | 89 | 1009.6 |
| 20260505075114 | 70 | 137 | 0.9 | 3.5 | 0.00 | 0.00 | 0.00 | 88 | 1009.8 |
| 20260505074104 | 70 | 132 | 0.9 | 3.5 | 0.00 | 0.00 | 0.00 | 88 | 1009.8 |
| 20260505073054 | 71 | 153 | 0.9 | 6.1 | 0.00 | 0.00 | 0.00 | 88 | 1009.8 |
| 20260505072104 | 70 | 174 | 0.9 | 3.5 | 0.00 | 0.00 | 0.00 | 88 | 1009.8 |
| 20260505071034 | 70 | 143 | 0.9 | 5.2 | 0.00 | 0.00 | 0.00 | 87 | 1010.0 |
| 20260505070024 | 71 | 137 | 0.9 | 3.5 | 0.00 | 0.00 | 0.00 | 87 | 1010.1 |
| 20260505065114 | 71 | 127 | 0.9 | 5.2 | 0.00 | 0.00 | 0.00 | 86 | 1010.3 |
| 20260505064105 | 71 | 132 | 0.9 | 1.7 | 0.00 | 0.00 | 0.00 | 86 | 1010.4 |
| 20260505063054 | 71 | 160 | 0.9 | 3.5 | 0.00 | 0.00 | 0.00 | 85 | 1010.4 |
| 20260505062105 | 71 | 188 | 1.7 | 5.2 | 0.00 | 0.00 | 0.00 | 85 | 1010.6 |
| 20260505061034 | 71 | 189 | 0.9 | 3.5 | 0.00 | 0.00 | 0.00 | 85 | 1010.8 |